Weather History for Rochester, NY

Change the Weather History Date:

Friday, October 18, 2013

  Actual Average Record
Temperature  
Mean Temperature 55 °F 50 °F  
Max Temperature 61 °F 59 °F 83 °F (1947)
Min Temperature 48 °F 41 °F 23 °F (1972)
Degree Days  
Heating Degree Days 10 15  
Month to date heating degree days 108 225  
Since 1 July heating degree days 298 406  
Cooling Degree Days 0 0  
Month to date cooling degree days 10 0  
Year to date cooling degree days 660 534  
Growing Degree Days 4 (Base 50)    
Moisture  
Dew Point 43 °F    
Average Humidity 68    
Maximum Humidity 89    
Minimum Humidity 47    
Precipitation  
Precipitation T in 0.08 in 1.16 in (1937)
Month to date precipitation 2.20 1.61  
Year to date precipitation 29.82 27.59  
Snow  
Snow 0.00 in 0.00 in 0.10 in (1972)
Month to date snowfall 0.0 0.0  
Since 1 July snowfall 0.0 0.0  
Since 1 September snowfall 0.0 0.0  
Snow Depth 0.00 in    
Sea Level Pressure  
Sea Level Pressure 29.85 in    
Wind  
Wind Speed 11 mph (WSW)    
Max Wind Speed 22 mph    
Max Gust Speed 31 mph    
Visibility 10 miles    
Events Rain    
T = Trace of Precipitation, MM = Missing Value Source: NWS Daily Summary

Daily Weather History Graph

Daily Weather History Graph

Search for Another Location

Airport:

Trip Planner

Search our weather history database for the weather conditions in past years. The results will help you decide how hot, cold, wet, or windy it might be!

Date:

Astronomy

Oct. 18, 2013 Rise Set
Actual Time 7:28 AM EDT 6:22 PM EDT
Civil Twilight 6:59 AM EDT 6:51 PM EDT
Nautical Twilight 6:26 AM EDT 7:24 PM EDT
Astronomical Twilight 5:53 AM EDT 7:57 PM EDT
Moon 6:10 PM EDT (10/18) 7:01 AM EDT (10/18)
Length of Visible Light 11h 52m
Length of Day
10h 54m
Full, 100% of the Moon is Illuminated
Oct 18
Full
Oct 18
Full
Oct 26
Last Quarter
Nov 3
New
Nov 10
First Quarter

Hourly Weather History & Observations

Time (EDT) Temp. Dew Point Humidity Pressure Visibility Wind Dir Wind Speed Gust Speed Precip Events Conditions
12:54 AM 53.1 °F 50.0 °F 89% 29.74 in 10.0 mi WSW 8.1 mph - 0.03 in Rain Light Rain
1:54 AM 52.0 °F 48.9 °F 89% 29.75 in 10.0 mi WSW 10.4 mph - 0.00 in   Mostly Cloudy
2:54 AM 52.0 °F 48.0 °F 86% 29.75 in 10.0 mi WSW 9.2 mph - N/A   Mostly Cloudy
3:54 AM 52.0 °F 48.0 °F 86% 29.76 in 10.0 mi WSW 6.9 mph - N/A   Overcast
4:54 AM 52.0 °F 48.0 °F 86% 29.77 in 10.0 mi WSW 10.4 mph - N/A   Overcast
5:54 AM 51.1 °F 46.9 °F 86% 29.78 in 10.0 mi WSW 10.4 mph - N/A   Overcast
6:54 AM 50.0 °F 46.0 °F 86% 29.79 in 10.0 mi West 8.1 mph - N/A   Mostly Cloudy
7:54 AM 51.1 °F 45.0 °F 80% 29.82 in 10.0 mi West 16.1 mph 23.0 mph N/A   Mostly Cloudy
8:54 AM 52.0 °F 45.0 °F 77% 29.85 in 10.0 mi West 17.3 mph - N/A   Mostly Cloudy
9:54 AM 53.1 °F 43.0 °F 69% 29.88 in 10.0 mi WSW 17.3 mph 25.3 mph N/A   Scattered Clouds
10:54 AM 53.1 °F 39.9 °F 61% 29.90 in 10.0 mi West 20.7 mph 31.1 mph N/A   Scattered Clouds
11:54 AM 55.0 °F 39.0 °F 55% 29.90 in 10.0 mi West 17.3 mph 26.5 mph N/A   Scattered Clouds
12:54 PM 55.9 °F 37.0 °F 49% 29.89 in 10.0 mi West 18.4 mph 25.3 mph N/A   Mostly Cloudy
1:54 PM 57.9 °F 37.9 °F 47% 29.88 in 10.0 mi West 13.8 mph 24.2 mph N/A   Scattered Clouds
2:54 PM 57.9 °F 37.0 °F 46% 29.89 in 10.0 mi West 15.0 mph 24.2 mph N/A   Scattered Clouds
3:54 PM 57.0 °F 37.0 °F 47% 29.90 in 10.0 mi West 12.7 mph - N/A   Scattered Clouds
4:54 PM 57.9 °F 37.0 °F 46% 29.89 in 10.0 mi WSW 17.3 mph - N/A   Scattered Clouds
5:54 PM 54.0 °F 39.9 °F 59% 29.90 in 10.0 mi SW 6.9 mph - N/A   Scattered Clouds
6:54 PM 54.0 °F 43.0 °F 66% 29.91 in 10.0 mi SW 6.9 mph - N/A   Mostly Cloudy
7:54 PM 51.1 °F 43.0 °F 74% 29.91 in 10.0 mi SW 4.6 mph - N/A   Scattered Clouds
8:54 PM 50.0 °F 44.1 °F 80% 29.91 in 10.0 mi SW 4.6 mph - N/A   Scattered Clouds
9:54 PM 51.1 °F 43.0 °F 74% 29.92 in 10.0 mi SSW 4.6 mph - N/A   Scattered Clouds
10:54 PM 48.9 °F 42.1 °F 77% 29.93 in 10.0 mi SW 5.8 mph - N/A   Scattered Clouds
11:54 PM 50.0 °F 42.1 °F 74% 29.92 in 10.0 mi SW 5.8 mph - N/A   Scattered Clouds